Regional Weather Roundup
Issued by NWS Little Rock, AR

Home | Current Version | Previous Version | Text Only | Print | Product List | Glossary Off
Versions: 1 2 3 4 5 6 7 8 9 10 11 12 13 14 15 16 17 18 19 20 21 22 23 24 25 26 27 28 29 30 31 32 33 34 35 36 37 38 39 40 41 42 43 44 45 46 47 48 49 50

000
ASUS44 KLZK 221805
RWRLZK

WEATHER ROUNDUP FOR ARKANSAS
NATIONAL WEATHER SERVICE LITTLE ROCK AR
100 PM CDT SAT JUL 22 2017

NOTE: "FAIR" INDICATES FEW OR NO CLOUDS BELOW 12,000 FEET WITH NO
SIGNIFICANT WEATHER AND/OR OBSTRUCTIONS TO VISIBILITY.

ARZ001-003-010-029-221900-
NORTHWEST ARKANSAS

CITY           SKY/WX    TMP DP  RH WIND       PRES   REMARKS
FAYETTEVILLE   SUNNY     91  74  57 SW12      29.97F HX 100
6HR MIN TEMP:  72; 6HR MAX TEMP:  91;

FORT SMITH     SUNNY     94  71  47 S8        29.93F HX 101
6HR MIN TEMP:  77; 6HR MAX TEMP:  95;

HARRISON       SUNNY     93  70  46 VRB3      29.98F HX  99
6HR MIN TEMP:  78; 6HR MAX TEMP:  93;

BENTONVILLE    SUNNY     91  72  52 SW10      29.99S HX  98
6HR MIN TEMP:  75; 6HR MAX TEMP:  91;

ROGERS         SUNNY     91  72  53 W10       29.98F HX  98
6HR MIN TEMP:  76; 6HR MAX TEMP:  92;

SILOAM SPGS    SUNNY     93  70  46 SW10G17   29.96F HX  99
6HR MIN TEMP:  73; 6HR MAX TEMP:  93;

HIGHFILL       SUNNY     94  72  48 SW13      29.97F HX 102
6HR MIN TEMP:  73; 6HR MAX TEMP:  94;

SPRINGDALE     SUNNY     91  72  52 SW9G16    29.99F HX  98
$$

ARZ004-005-016-221900-
NORTH CENTRAL ARKANSAS

CITY           SKY/WX    TMP DP  RH WIND       PRES   REMARKS
BATESVILLE     MOSUNNY   95  73  49 SW8       29.95S HX 105
6HR MIN TEMP:  79; 6HR MAX TEMP:  97;

FLIPPIN        SUNNY     95  70  43 SE5       29.93F HX 101
6HR MIN TEMP:  73; 6HR MAX TEMP:  95;

MTN HOME       SUNNY     92  72  51 W8        29.95  HX  99
6HR MIN TEMP:  75; 6HR MAX TEMP:  93;

$$

ARZ040-041-221900-
WEST CENTRAL ARKANSAS

CITY           SKY/WX    TMP DP  RH WIND       PRES   REMARKS
MENA           MOSUNNY   95  72  46 S5        29.99F HX 103
MOUNT IDA      SUNNY     95  68  41 MISG      29.96F HX  99
6HR MIN TEMP:  73; 6HR MAX TEMP:  95;

$$

ARZ009-017-025-026-028-221900-
NORTHEAST ARKANSAS

CITY           SKY/WX    TMP DP  RH WIND       PRES   REMARKS
JONESBORO      SUNNY     96  78  56 S14       29.94F HX 112
6HR MIN TEMP:  81; 6HR MAX TEMP:  96;

WALNUT RIDGE   SUNNY     97  73  46 CALM      29.93F HX 107
6HR MIN TEMP:  79; 6HR MAX TEMP:  97;

BLYTHEVILLE    MOSUNNY   94  79  61 VRB7      29.95F HX 111
6HR MIN TEMP:  80; 6HR MAX TEMP:  94;

$$

ARZ022-023-033-042-044-221900-
CENTRAL ARKANSAS

CITY           SKY/WX    TMP DP  RH WIND       PRES   REMARKS
LITTLE ROCK    MOSUNNY   94  75  54 SW10      29.95F HX 105
6HR MIN TEMP:  77; 6HR MAX TEMP:  94;

N LITTLE ROCK    N/A     92  75  58 W3        29.93F HX 103
6HR MIN TEMP:  78; 6HR MAX TEMP:  92;

JACKSONVILLE   MOSUNNY   95  76  53 W7        29.94F HX 108
6HR MIN TEMP:  77; 6HR MAX TEMP:  95;

CONWAY           N/A     95  73  49 CALM      29.93F HX 105
SEARCY         SUNNY     94  77  57 SW5       29.96F HX 108
6HR MIN TEMP:  76; 6HR MAX TEMP:  95;

HOT SPRINGS    SUNNY     94  73  50 S8G17     29.97F HX 103
6HR MIN TEMP:  77; 6HR MAX TEMP:  95;

RUSSELLVILLE   SUNNY     93  75  55 W5        29.94F HX 104
6HR MIN TEMP:  76; 6HR MAX TEMP:  93;

CLINTON        FAIR      93  75  55 VRB6G13   29.95F HX 104
$$

ARZ036-221900-
EAST ARKANSAS

CITY           SKY/WX    TMP DP  RH WIND       PRES   REMARKS
WEST MEMPHIS   MOSUNNY   93  78  61 VRB6      29.95F HX 108
6HR MIN TEMP:  78; 6HR MAX TEMP:  93;

$$

ARZ050-053-066-070-073-221900-
SOUTHWEST ARKANSAS

CITY           SKY/WX    TMP DP  RH WIND       PRES   REMARKS
ARKADELPHIA    FAIR      93  78  61 W6        29.96F HX 108
6HR MIN TEMP:  74; 6HR MAX TEMP:  93;

CAMDEN         MOSUNNY   93  73  52 SW6       29.96F HX 102
TEXARKANA      MOSUNNY   93  73  52 SW8       29.97F HX 102
6HR MIN TEMP:  76; 6HR MAX TEMP:  93;

EL DORADO      MOSUNNY   92  74  55 S7        29.97F HX 101
6HR MIN TEMP:  74; 6HR MAX TEMP:  93;

DE QUEEN       MOSUNNY   93  76  57 S7        29.94F HX 105
6HR MIN TEMP:  74; 6HR MAX TEMP:  94;

$$

ARZ056-057-069-221900-
SOUTHEAST ARKANSAS

CITY           SKY/WX    TMP DP  RH WIND       PRES   REMARKS
PINE BLUFF     SUNNY     93  75  55 W8        29.96F HX 104
6HR MIN TEMP:  77; 6HR MAX TEMP:  93;

STUTTGART      SUNNY     95  66  38 SW10      29.97F HX  98
6HR MIN TEMP:  79; 6HR MAX TEMP:  95;

MONTICELLO     MOSUNNY   94  73  50 SW8       29.97F HX 103
6HR MIN TEMP:  78; 6HR MAX TEMP:  94;


$$





USA.gov is the U.S. government's official web portal to all federal, state and local government web resources and services.